User: anonymous   Login
Location: Lawrence
(38.9720°N, 95.2350°W)
Time: 15:34:14
(UTC-05:00)
Language:

JAS-1B - Orbit

View from above orbital plane
View from above orbital plane
View from above satellite
View from above satellite

Ground track
Ground track

The orbit data is extracted from the following two-line orbital elements,

1 20480U 90013C   16239.82308174 -.00000046  00000-0 -25188-4 0  9991
2 20480  99.0216  62.6338 0539955 338.2316  85.4949 12.83412044243965
Epoch (UTC): 26 August 2016 19:45:14
Eccentricity: 0.0539955
inclination: 99.0216°
perigee height: 911 km
apogee height: 1744 km
right ascension of ascending node: 62.6338°
argument of perigee: 338.2316°
revolutions per day: 12.83412044
mean anomaly at epoch: 85.4949°
orbit number at epoch: 24396

The dashed part of the orbit path shows where the satellite is in the earth's shadow,  

DLR